Погода в Коробицыне

Россия / Санкт-Петербург и Ленинградская область     60°31′08″N   29°43′31″E
темп.,
°C
ветер,
м/с
пор.,
м/с
влажн.,
%
обл.,
%
осадки,
мм/ч
давл.,
гПа
погр.,
м
12 мая, ср
ср1200:00+14ю311790 0.0 1022226
03:00+12ю39853 0.0 1022170
06:00+13ю38811 0.0 1022168
09:00+18ю47520 0.0 1022406
12:00+22ю47460 0.0 10221052
15:00+24ю47420 0.0 10211629
18:00+24ю46440 0.0 10201747
21:00+18ююв27680 0.0 1020143
13 мая, чт
чт1300:00+15юв22730 0.0 101920
03:00+14в26775 0.0 1019108
06:00+14вюв39770 0.0 1017209
09:00+19юв48605 0.0 1016800
12:00+19ююв5757100 0.0 10161598
15:00+21ююв47435 0.1 10152074
18:00+20ю35365 0.0 10141820
21:00+15всв11585 0.0 101311
14 мая, пт
пт1400:00+12всв226895 0.0 101217
03:00+13ююв2263100 0.0 101157
06:00+11зюз2492100 1.6 1010122
09:00+11зсз1597100 7.4 1011247
12:00+16зюз247278 0.2 10111032
15:00+18ююз246060 0.7 10111323
18:00+19ююв244427 0.3 10111653
21:00+15ююв256968 0.3 1011106
15 мая, сб
сб1500:00+12ююв23845 0.0 101158
03:00+11вюв22875 0.0 101133
06:00+12в3982100 0.0 1010226
09:00+16в41163100 0.0 1009611
12:00+12всв41287100 2.4 1008467
15:00+17вюв5877100 2.8 1007976
18:00+14всв3788100 0.4 1005329
21:00+13в1188100 0.4 100527
16 мая, вс
вс1600:00+11зюз119516 0.0 100410
03:00+10з119775 0.0 100411
06:00+11зюз269794 0.0 1004191
09:00+11зюз4792100 0.0 1006412
12:00+12зюз5981100 0.0 1008609
15:00+10юз5128565 0.0 1010513
18:00+14зюз5117111 0.0 1011837
21:00+10зюз4127963 0.0 1013429